Location: Glendale
(37.4556°N, 88.6714°W)
Time: 09:09:39
(UTC+00:00)

Cosmos 2263 Rocket - Pass Details

Date: 08 December 2019
Orbit: 824 x 848 km, 71.0° (Epoch: 20 January)

Event Time Altitude Azimuth Distance (km) Brightness Sun altitude
Rises 10:31:01 0° 177° (S) 3,359 5.5 -28.1°
Reaches altitude 10° 10:33:36 10° 169° (S) 2,426 4.8 -27.6°
Maximum altitude 10:38:38 36° 104° (ESE) 1,289 3.6 -26.6°
Drops below altitude 10° 10:43:39 10° 40° (NE) 2,431 4.9 -25.7°
Sets 10:46:15 0° 32° (NNE) 3,366 5.6 -25.1°
